West Palm Beach, FL

2:31 PM EST on December 07, 2019 (GMT -0500)
Palm Beach International

Weather History for KPBI - October, 2019

Change the Weather History Date:

Thursday, October 10, 2019

  Actual Average Record
Temperature  
Mean Temperature 82 °F 80 °F  
Max Temperature 88 °F 86 °F 95 °F (1941)
Min Temperature 75 °F 73 °F 57 °F (1903)
Degree Days  
Heating Degree Days 0 0  
Month to date heating degree days 0 0  
Since 1 July heating degree days 0 0  
Cooling Degree Days 17 14  
Month to date cooling degree days 173 151  
Year to date cooling degree days 3882 3359  
Growing Degree Days 30 (Base 50)    
Moisture  
Dew Point 73 °F    
Average Humidity 78    
Maximum Humidity 94    
Minimum Humidity 61    
Precipitation  
Precipitation 0.02 in 0.18 in 2.00 in (1892)
Month to date precipitation 3.31 1.96  
Year to date precipitation 48.66 51.03  
Snow  
Snow 0.00 in - - ()
Month to date snowfall 0.0  
Since 1 July snowfall 0.0  
Since 1 September snowfall 0.0  
Snow Depth 0.00 in    
Sea Level Pressure  
Sea Level Pressure 29.94 in    
Wind  
Wind Speed 9 mph (North)    
Max Wind Speed 18 mph    
Max Gust Speed 26 mph    
Visibility 10 miles    
Events Rain    
T = Trace of Precipitation, MM = Missing Value Source: NWS Daily Summary

Daily Weather History Graph

Daily Weather History Graph

Search for Another Location

Airport or City:

Astronomy

Oct. 10, 2019 Rise Set
Actual Time 7:17 AM EDT 6:57 PM EDT
Civil Twilight 6:53 AM EDT 7:20 PM EDT
Nautical Twilight 6:26 AM EDT 7:47 PM EDT
Astronomical Twilight 6:00 AM EDT 8:14 PM EDT
Moon 5:35 PM EDT (10/10) 4:25 AM EDT (10/10)
Length of Visible Light 12h 26m
Length of Day
11h 40m
Waxing Gibbous, 91% of the Moon is Illuminated
Oct 10
Waxing Gibbous
Oct 13
Full
Oct 21
Last Quarter
Oct 27
New
Nov 4
First Quarter

Hourly Weather History & Observations

Time (EDT) Temp. Heat Index Dew Point Humidity Pressure Visibility Wind Dir Wind Speed Gust Speed Precip Events Conditions
12:53 AM 75.0 °F - 73.9 °F 96% 29.96 in 10.0 mi North 3.5 mph - 0.00 in   Mostly Cloudy
1:53 AM 75.0 °F - 73.9 °F 96% 29.94 in 10.0 mi West 4.6 mph - N/A   Mostly Cloudy
2:10 AM 75.0 °F - 73.9 °F 96% 29.94 in 10.0 mi West 4.6 mph - N/A   Mostly Cloudy
2:29 AM 75.0 °F - 73.9 °F 96% 29.93 in 10.0 mi WNW 3.5 mph - 0.00 in Rain Light Rain
2:53 AM 75.0 °F - 73.9 °F 96% 29.92 in 8.0 mi NNW 3.5 mph - 0.00 in Rain Light Rain
3:53 AM 75.0 °F - 73.9 °F 96% 29.91 in 10.0 mi NW 5.8 mph - 0.00 in Rain Light Rain
4:41 AM 75.0 °F - 73.9 °F 96% 29.92 in 10.0 mi NW 6.9 mph - 0.00 in   Overcast
4:53 AM 75.0 °F - 73.9 °F 96% 29.92 in 10.0 mi WNW 4.6 mph - 0.00 in   Overcast
5:02 AM 75.0 °F - 73.9 °F 96% 29.92 in 10.0 mi Calm Calm - N/A   Mostly Cloudy
5:53 AM 75.0 °F - 73.9 °F 96% 29.93 in 10.0 mi WNW 5.8 mph - N/A   Mostly Cloudy
6:53 AM 75.0 °F - 73.9 °F 96% 29.94 in 10.0 mi NW 4.6 mph - N/A   Mostly Cloudy
7:53 AM 75.0 °F - 73.9 °F 96% 29.95 in 10.0 mi NW 3.5 mph - N/A   Mostly Cloudy
8:00 AM 75.0 °F - 73.9 °F 96% 29.94 in 10.0 mi North 3.5 mph - N/A   Mostly Cloudy
8:53 AM 77.0 °F - 75.0 °F 94% 29.97 in 10.0 mi NW 5.8 mph - N/A   Mostly Cloudy
9:53 AM 78.1 °F - 75.0 °F 90% 29.96 in 10.0 mi NW 9.2 mph - N/A   Mostly Cloudy
10:53 AM 84.0 °F 91.2 °F 73.9 °F 72% 29.96 in 10.0 mi North 6.9 mph - N/A   Scattered Clouds
11:53 AM 84.9 °F 91.4 °F 73.0 °F 67% 29.96 in 10.0 mi NNE 11.5 mph - N/A   Mostly Cloudy
12:53 PM 86.0 °F 92.2 °F 72.0 °F 63% 29.95 in 10.0 mi NNE 13.8 mph 18.4 mph N/A   Mostly Cloudy
1:53 PM 87.1 °F 94.5 °F 73.0 °F 63% 29.93 in 10.0 mi NNE 16.1 mph - N/A   Scattered Clouds
2:53 PM 84.9 °F 90.7 °F 72.0 °F 65% 29.91 in 10.0 mi NNE 9.2 mph - N/A   Mostly Cloudy
3:53 PM 84.9 °F 91.4 °F 73.0 °F 67% 29.91 in 10.0 mi NE 16.1 mph - 0.00 in   Mostly Cloudy
4:53 PM 84.0 °F 89.6 °F 72.0 °F 67% 29.91 in 10.0 mi NNE 11.5 mph - N/A   Mostly Cloudy
5:53 PM 82.9 °F 88.8 °F 73.0 °F 72% 29.91 in 10.0 mi NNE 11.5 mph - N/A   Mostly Cloudy
6:53 PM 82.0 °F 86.7 °F 72.0 °F 71% 29.91 in 10.0 mi NNE 12.7 mph - N/A   Mostly Cloudy
7:53 PM 79.0 °F - 73.9 °F 84% 29.92 in 7.0 mi NNE 9.2 mph 19.6 mph 0.02 in Rain Light Rain
8:53 PM 80.1 °F 84.2 °F 73.0 °F 79% 29.94 in 10.0 mi NE 13.8 mph - 0.00 in   Mostly Cloudy
9:53 PM 79.0 °F - 73.0 °F 82% 29.95 in 10.0 mi NE 13.8 mph - N/A   Scattered Clouds
10:53 PM 80.1 °F 83.6 °F 71.1 °F 74% 29.96 in 10.0 mi NE 13.8 mph - N/A   Scattered Clouds
11:53 PM 80.1 °F 83.8 °F 72.0 °F 76% 29.95 in 10.0 mi ENE 9.2 mph - N/A   Mostly Cloudy